Flag for Germany Weather past 2 weeks in Melle, Lower Saxony, Germany

Now
36 °F

Partly sunny.


Feels Like: 29 °F
Forecast: 31 / 38 °F
Wind: 9 mph from North

Location: Muenster / Osnabrueck

Current Time: Dec 29, 2014 at 1:35:09 PM

Latest Report: Dec 29, 2014 at 12:50 PM


Visibility: N/A

Pressure: 30.45 "Hg

Humidity: 81%

Dew point: 30 °F

Location of MelleLocation

Historic Weather in Melle — Graph

°F

Melle temperature yesterday

Maximum temperature yesterday: 32 °F (at 11:20 PM)
Minimum temperature yesterday: 23 °F (at 6:20 AM)
Average temperature yesterday: 27 °F

Past Weeks' High & Low Weather Summary

 TemperatureHumidityPressure
High55 °F (Dec 18, 6:20 PM)100% (Dec 15, 11:50 AM)30.45 "Hg (Dec 15, 11:50 AM)
Low23 °F (Dec 28, 6:20 AM)64% (Dec 27, 6:50 PM)29.53 "Hg (Dec 17, 1:20 PM)
Average42 °F89%29.98 "Hg
* Reported Dec 14 12:20 PM — Dec 29 12:20 PM, Melle, Weather by CustomWeather, © 2014

Note: Actual official high and low records may vary slightly from our data, if they occured in-between our weather recording intervals... More about our weather records

Advertising

Melle weather history for previous 24 hours

 ConditionsComfort  
Time TempWeatherWind HumidityBarometerVisibility
12:20 PM
Dec 29
36 °FBroken clouds.10 mph87%30.45 "HgN/A
11:50 AM36 °FPartly sunny.10 mph87%30.45 "HgN/A
11:20 AM36 °FPartly sunny.12 mph87%30.42 "HgN/A
10:50 AM36 °FPassing clouds.10 mph93%30.42 "HgN/A
10:20 AM36 °FScattered clouds.8 mph93%30.39 "HgN/A
9:50 AM36 °FScattered clouds.6 mph93%30.39 "HgN/A
9:20 AM36 °FScattered clouds.7 mph93%30.39 "HgN/A
8:50 AM36 °FPartly sunny.6 mph93%30.36 "HgN/A
8:20 AM36 °FPartly cloudy.8 mph100%30.36 "Hg5 mi
7:50 AM36 °FPartly cloudy.7 mph93%30.33 "Hg5 mi
7:20 AM36 °FLight rain. Partly cloudy.9 mph93%30.36 "Hg4 mi
6:50 AM34 °FLight snow. Partly cloudy.8 mph100%30.33 "Hg4 mi
6:20 AM34 °FPassing clouds.9 mph100%30.33 "Hg4 mi
5:50 AM34 °FPassing clouds.10 mph100%30.33 "Hg4 mi
5:20 AM34 °FPassing clouds.8 mph100%30.33 "Hg4 mi
4:50 AM32 °FLight snow. Passing clouds.10 mph100%30.33 "Hg4 mi
4:20 AM32 °FLight snow. Ice fog.12 mph100%30.33 "Hg4 mi
3:50 AM32 °FLight snow. Ice fog.10 mph100%30.36 "Hg3 mi
3:20 AM32 °FLight snow. Ice fog.14 mph100%30.36 "Hg3 mi
2:50 AM32 °FSnow. Passing clouds.14 mph100%30.36 "Hg1 mi
2:20 AM32 °FSnow. Passing clouds.12 mph93%30.36 "Hg1 mi
1:50 AM32 °FSnow. Partly cloudy.14 mph93%30.39 "Hg1 mi
1:20 AM32 °FLight snow. Passing clouds.10 mph87%30.39 "HgN/A
12:50 AM32 °FPassing clouds.10 mph87%30.39 "HgN/A
12:20 AM32 °FPassing clouds.9 mph87%30.42 "HgN/A
11:50 PM
Dec 28
32 °FPassing clouds.10 mph80%30.42 "HgN/A
11:20 PM32 °FPassing clouds.9 mph87%30.42 "HgN/A
10:20 PM30 °FPassing clouds.7 mph86%30.45 "HgN/A
9:50 PM30 °FPassing clouds.7 mph86%30.45 "HgN/A
9:20 PM30 °FPassing clouds.7 mph86%30.45 "HgN/A
8:50 PM30 °FPassing clouds.6 mph86%30.45 "HgN/A
8:20 PM27 °FPassing clouds.5 mph86%30.45 "HgN/A
7:50 PM30 °FPassing clouds.6 mph86%30.45 "HgN/A
7:20 PM30 °FPassing clouds.7 mph86%30.45 "HgN/A
6:50 PM30 °FPassing clouds.6 mph86%30.45 "HgN/A
6:20 PM30 °FPassing clouds.5 mph80%30.45 "HgN/A
5:50 PM28 °FPassing clouds.3 mph86%30.45 "HgN/A
5:20 PM27 °FPassing clouds.3 mph86%30.42 "HgN/A
4:50 PM27 °FClear.2 mph86%30.42 "Hg10 mi
4:20 PM28 °FSunny.3 mph80%30.39 "Hg10 mi
3:50 PM30 °FSunny.5 mph80%30.39 "Hg10 mi
3:20 PM30 °FSunny.2 mph75%30.36 "Hg10 mi
2:50 PM30 °FSunny.2 mph80%30.36 "Hg10 mi
2:20 PM30 °FSunny.3 mph75%30.36 "Hg10 mi
1:50 PM28 °FPassing clouds.3 mph80%30.36 "HgN/A
1:20 PM30 °FPartly sunny.5 mph75%30.36 "HgN/A
Weather by CustomWeather, © 2014

See weather overviewHow to use our weather pages